Regional Weather Roundup
Issued by NWS

Home | Current Version | Previous Version | Text Only | Print | Product List | Glossary Off
Versions: 1 2 3 4 5 6 7 8 9 10 11 12 13 14 15 16 17 18 19 20 21 22 23 24 25 26 27 28 29 30 31 32 33 34 35 36 37 38 39 40 41 42 43 44 45 46 47 48 49 50

000
ASUS43 KLSX 291259
RWRMO

WEATHER SUMMARY FOR MISSOURI
NATIONAL WEATHER SERVICE SPRINGFIELD MO
800 AM CDT TUE JUL 29 2014

NOTE: "FAIR" INDICATES FEW OR NO CLOUDS BELOW 12,000 FEET WITH NO
       SIGNIFICANT WEATHER AND/OR OBSTRUCTIONS TO VISIBILITY.
       CURRENT SKY AND/OR WEATHER CONDITIONS ARE NOT AVAILABLE FOR
       CHILLICOTHE AND FARMINGTON.

MOZ001>031-035>038-043-044-053-054-291400-
...NORTHERN AND WESTERN MISSOURI...

CITY           SKY/WX    TMP DP  RH WIND       PRES   REMARKS
KANSAS CTY INT MOSUNNY   64  59  83 N3        30.18S
KANSAS C DTWN  SUNNY     66  60  81 NW5       30.17S
LEE`S SUMMIT   SUNNY     64  61  90 W5        30.18S
ST JOSEPH      MOSUNNY   61  59  93 NE3       30.19S
CHILLICOTHE      N/A     64  59  83 CALM      30.18S
KIRKSVILLE     SUNNY     63  59  87 W3        30.17S

$$
MOZ066>068-077>081-088>096-101>105-291400-
...SOUTHWEST MISSOURI...

CITY           SKY/WX    TMP DP  RH WIND       PRES   REMARKS
SPRINGFIELD    SUNNY     64  57  78 S5        30.18R
JOPLIN         MOSUNNY   67  59  75 VRB3      30.19R

$$
MOZ032>034-039>042-045>050-055>058-069>072-291400-
...CENTRAL MISSOURI...

CITY           SKY/WX    TMP DP  RH WIND       PRES   REMARKS
COLUMBIA       SUNNY     66  57  72 NW3       30.17S
JEFFERSON CITY SUNNY     62  58  86 CALM      30.16S
ROLLA          SUNNY     62  56  80 SW3       30.16S
SEDALIA        SUNNY     66  56  70 SW6       30.18R
OSAGE BEACH    SUNNY     61  55  82 CALM      30.18R

$$
MOZ051-052-059>065-291400-
...EAST CENTRAL MISSOURI...

CITY           SKY/WX    TMP DP  RH WIND       PRES   REMARKS
ST LOUIS INTL  SUNNY     66  57  72 W6        30.15R
SPIRIT OF STL  MOSUNNY   58  57  97 CALM      30.15R
ST CHARLES     SUNNY     62  59  90 W3        30.14S

$$
MOZ072>076-082>087-097>100-106>115-291400-
...SOUTH CENTRAL AND SOUTHEAST MISSOURI...

CITY           SKY/WX    TMP DP  RH WIND       PRES   REMARKS
CAPE GIRARDEAU SUNNY     63  57  81 CALM      30.14S
FARMINGTON     SUNNY     57  54  88 CALM      30.18S
POPLAR BLUFF   SUNNY     64  56  75 NW5       30.14R
WEST PLAINS    SUNNY     64  55  72 NE5       30.18S

$$


USA.gov is the U.S. government's official web portal to all federal, state and local government web resources and services.